| time (UTC) | temp C | wind direction | speed KPH | gust KPH | rain 1hr cm | rain 24hr cm | rain mn cm | humidity % | barometer mb |
| 20260905195602 | 16 | 303 | 0.0 | 0.0 | 0.00 | 0.00 | 0.00 | 81 | 1025.7 |
| 20260905193603 | 16 | 303 | 0.0 | 0.0 | 0.00 | 0.00 | 0.00 | 79 | 1025.6 |
| 20260905193103 | 16 | 303 | 0.0 | 0.0 | 0.00 | 0.00 | 0.00 | 78 | 1025.6 |
| 20260905191602 | 17 | 303 | 0.0 | 0.0 | 0.00 | 0.00 | 0.00 | 76 | 1025.6 |
| 20260905191104 | 17 | 303 | 0.0 | 1.6 | 0.00 | 0.00 | 0.00 | 76 | 1025.5 |
| 20260905185602 | 17 | 303 | 0.0 | 1.6 | 0.00 | 0.00 | 0.00 | 74 | 1025.5 |
| 20260905185103 | 17 | 303 | 1.6 | 1.6 | 0.00 | 0.00 | 0.00 | 73 | 1025.5 |
| 20260905184603 | 17 | 303 | 0.0 | 3.2 | 0.00 | 0.00 | 0.00 | 73 | 1025.4 |
| 20260905184102 | 17 | 303 | 1.6 | 4.8 | 0.00 | 0.00 | 0.00 | 73 | 1025.4 |
| 20260905183602 | 17 | 303 | 3.2 | 4.8 | 0.00 | 0.00 | 0.00 | 73 | 1025.3 |
| 20260905183103 | 18 | 303 | 1.6 | 4.8 | 0.00 | 0.00 | 0.00 | 73 | 1025.3 |
| 20260905182602 | 18 | 303 | 1.6 | 4.8 | 0.00 | 0.00 | 0.00 | 72 | 1025.4 |
| 20260905182103 | 18 | 303 | 1.6 | 4.8 | 0.00 | 0.00 | 0.00 | 72 | 1025.1 |
| 20260905181602 | 18 | 303 | 0.0 | 0.0 | 0.00 | 0.00 | 0.00 | 72 | 1025.2 |
| 20260905181104 | 18 | 303 | 0.0 | 4.8 | 0.00 | 0.00 | 0.00 | 72 | 1025.2 |
| 20260905173103 | 18 | 303 | 6.4 | 11.3 | 0.00 | 0.00 | 0.00 | 69 | 1025.1 |
| 20260905165102 | 18 | 310 | 9.7 | 19.3 | 0.00 | 0.00 | 0.00 | 69 | 1025.1 |
| 20260905164602 | 18 | 312 | 6.4 | 11.3 | 0.00 | 0.00 | 0.00 | 69 | 1024.8 |
| 20260905164102 | 18 | 315 | 8.0 | 12.9 | 0.00 | 0.00 | 0.00 | 69 | 1024.8 |
| 20260905162103 | 18 | 310 | 9.7 | 20.9 | 0.00 | 0.00 | 0.00 | 67 | 1024.7 |
| 20260905161601 | 18 | 314 | 9.7 | 19.3 | 0.00 | 0.00 | 0.00 | 66 | 1024.6 |
| 20260905161102 | 18 | 291 | 8.0 | 25.7 | 0.00 | 0.00 | 0.00 | 66 | 1024.6 |
| 20260905155602 | 19 | 291 | 8.0 | 19.3 | 0.00 | 0.00 | 0.00 | 67 | 1024.5 |
| 20260905155103 | 18 | 285 | 9.7 | 19.3 | 0.00 | 0.00 | 0.00 | 68 | 1024.4 |
| 20260905154602 | 18 | 269 | 6.4 | 14.5 | 0.00 | 0.00 | 0.00 | 68 | 1024.3 |
| 20260905154102 | 18 | 296 | 8.0 | 16.1 | 0.00 | 0.00 | 0.00 | 68 | 1024.2 |
| 20260905153602 | 18 | 303 | 6.4 | 11.3 | 0.00 | 0.00 | 0.00 | 68 | 1024.1 |
| 20260905153102 | 18 | 307 | 9.7 | 20.9 | 0.00 | 0.00 | 0.00 | 68 | 1024.1 |
| 20260905152601 | 18 | 306 | 11.3 | 22.5 | 0.00 | 0.00 | 0.00 | 67 | 1024.1 |
| 20260905151602 | 18 | 292 | 11.3 | 20.9 | 0.00 | 0.00 | 0.00 | 67 | 1024.0 |
| 20260905151102 | 18 | 300 | 11.3 | 25.7 | 0.00 | 0.00 | 0.00 | 66 | 1024.0 |
| 20260905145601 | 18 | 304 | 12.9 | 22.5 | 0.00 | 0.00 | 0.00 | 67 | 1024.0 |
| 20260905145103 | 18 | 303 | 14.5 | 29.0 | 0.00 | 0.00 | 0.00 | 67 | 1023.9 |
| 20260905144601 | 18 | 310 | 11.3 | 19.3 | 0.00 | 0.00 | 0.00 | 67 | 1023.9 |
| 20260905144102 | 18 | 299 | 14.5 | 20.9 | 0.00 | 0.00 | 0.00 | 67 | 1023.9 |
| 20260905143602 | 18 | 302 | 11.3 | 25.7 | 0.00 | 0.00 | 0.00 | 66 | 1023.8 |
| 20260905143102 | 18 | 318 | 14.5 | 24.1 | 0.00 | 0.00 | 0.00 | 67 | 1023.6 |
| 20260905142602 | 18 | 299 | 9.7 | 22.5 | 0.00 | 0.00 | 0.00 | 68 | 1023.6 |
| 20260905142102 | 18 | 322 | 11.3 | 29.0 | 0.00 | 0.00 | 0.00 | 67 | 1023.6 |
| 20260905141601 | 18 | 295 | 9.7 | 20.9 | 0.00 | 0.00 | 0.00 | 67 | 1023.6 |
| 20260905141103 | 18 | 305 | 11.3 | 22.5 | 0.00 | 0.00 | 0.00 | 66 | 1023.5 |
| 20260905135601 | 18 | 297 | 12.9 | 20.9 | 0.00 | 0.00 | 0.00 | 68 | 1023.5 |
| 20260905134103 | 19 | 290 | 11.3 | 24.1 | 0.00 | 0.00 | 0.00 | 67 | 1023.4 |
| 20260905132602 | 19 | 280 | 11.3 | 25.7 | 0.00 | 0.00 | 0.00 | 67 | 1023.1 |
| 20260905132102 | 19 | 298 | 11.3 | 32.2 | 0.00 | 0.00 | 0.00 | 65 | 1023.1 |
| 20260905131602 | 18 | 278 | 9.7 | 20.9 | 0.00 | 0.00 | 0.00 | 68 | 1023.1 |
| 20260905131102 | 18 | 276 | 14.5 | 29.0 | 0.00 | 0.00 | 0.00 | 69 | 1023.0 |
| 20260905123602 | 18 | 303 | 17.7 | 29.0 | 0.00 | 0.00 | 0.00 | 69 | 1022.7 |
| 20260905123103 | 18 | 289 | 11.3 | 22.5 | 0.00 | 0.00 | 0.00 | 70 | 1022.6 |
| 20260905122601 | 18 | 305 | 14.5 | 24.1 | 0.00 | 0.00 | 0.00 | 70 | 1022.7 |
| 20260905122102 | 18 | 299 | 16.1 | 25.7 | 0.00 | 0.00 | 0.00 | 69 | 1022.6 |
| 20260905121602 | 18 | 334 | 11.3 | 24.1 | 0.00 | 0.00 | 0.00 | 69 | 1022.5 |
| 20260905121103 | 18 | 304 | 16.1 | 25.7 | 0.00 | 0.00 | 0.00 | 69 | 1022.5 |
| 20260905115601 | 18 | 291 | 14.5 | 29.0 | 0.00 | 0.00 | 0.00 | 67 | 1022.5 |
| 20260905115102 | 18 | 302 | 14.5 | 27.4 | 0.00 | 0.00 | 0.00 | 67 | 1022.5 |
| 20260905114102 | 18 | 297 | 14.5 | 32.2 | 0.00 | 0.00 | 0.00 | 68 | 1022.5 |
| 20260905113601 | 18 | 283 | 14.5 | 35.4 | 0.00 | 0.03 | 0.00 | 68 | 1022.5 |
| 20260905112103 | 18 | 287 | 12.9 | 27.4 | 0.00 | 0.05 | 0.00 | 65 | 1022.1 |
| 20260905105102 | 18 | 304 | 14.5 | 25.7 | 0.00 | 0.13 | 0.00 | 68 | 1021.9 |
| 20260905104602 | 18 | 286 | 14.5 | 32.2 | 0.00 | 0.13 | 0.00 | 68 | 1021.9 |
| 20260905102102 | 19 | 288 | 14.5 | 29.0 | 0.00 | 0.28 | 0.00 | 67 | 1021.5 |
| 20260905101602 | 19 | 274 | 9.7 | 20.9 | 0.00 | 0.28 | 0.00 | 69 | 1021.4 |
| 20260905101103 | 18 | 299 | 14.5 | 32.2 | 0.00 | 0.28 | 0.00 | 70 | 1021.4 |
| 20260905092601 | 18 | 302 | 12.9 | 32.2 | 0.00 | 0.28 | 0.00 | 71 | 1020.8 |
| 20260905092102 | 18 | 289 | 11.3 | 24.1 | 0.00 | 0.28 | 0.00 | 71 | 1020.7 |
| 20260905090101 | 18 | 281 | 8.0 | 27.4 | 0.00 | 0.28 | 0.00 | 71 | 1020.5 |
| 20260905085601 | 18 | 296 | 14.5 | 25.7 | 0.00 | 0.28 | 0.00 | 71 | 1020.5 |
| 20260905085102 | 18 | 288 | 14.5 | 20.9 | 0.00 | 0.28 | 0.00 | 71 | 1020.5 |
| 20260905084601 | 18 | 287 | 14.5 | 27.4 | 0.00 | 0.28 | 0.00 | 70 | 1020.4 |
| 20260905084102 | 18 | 283 | 14.5 | 33.8 | 0.00 | 0.28 | 0.00 | 71 | 1020.4 |
| 20260905083601 | 18 | 272 | 16.1 | 25.7 | 0.00 | 0.28 | 0.00 | 73 | 1020.2 |
| 20260905083102 | 18 | 294 | 11.3 | 37.0 | 0.00 | 0.28 | 0.00 | 73 | 1020.0 |
| 20260905082603 | 18 | 278 | 14.5 | 24.1 | 0.00 | 0.28 | 0.00 | 73 | 1019.9 |
| 20260905082102 | 18 | 293 | 11.3 | 27.4 | 0.00 | 0.28 | 0.00 | 73 | 1019.9 |
| 20260905081601 | 18 | 302 | 12.9 | 24.1 | 0.00 | 0.28 | 0.00 | 74 | 1019.8 |
| 20260905081102 | 18 | 289 | 11.3 | 25.7 | 0.00 | 0.28 | 0.00 | 74 | 1019.6 |
| 20260905080101 | 18 | 295 | 14.5 | 29.0 | 0.00 | 0.28 | 0.00 | 75 | 1019.5 |
| 20260905075601 | 18 | 272 | 11.3 | 25.7 | 0.00 | 0.28 | 0.00 | 75 | 1019.4 |
| 20260905075102 | 18 | 275 | 8.0 | 25.7 | 0.00 | 0.28 | 0.00 | 75 | 1019.4 |
| 20260905074601 | 18 | 290 | 8.0 | 24.1 | 0.00 | 0.28 | 0.00 | 75 | 1019.4 |
| 20260905074102 | 18 | 283 | 14.5 | 27.4 | 0.00 | 0.28 | 0.00 | 74 | 1019.3 |
| 20260905073601 | 18 | 284 | 14.5 | 25.7 | 0.00 | 0.28 | 0.00 | 75 | 1019.2 |
| 20260905073102 | 18 | 289 | 16.1 | 25.7 | 0.00 | 0.28 | 0.00 | 74 | 1019.2 |
| 20260905072601 | 18 | 279 | 12.9 | 29.0 | 0.00 | 0.28 | 0.00 | 75 | 1019.2 |
| 20260905072104 | 18 | 282 | 8.0 | 20.9 | 0.00 | 0.28 | 0.00 | 76 | 1019.1 |
| 20260905071601 | 18 | 287 | 11.3 | 22.5 | 0.00 | 0.28 | 0.00 | 76 | 1018.9 |
| 20260905071102 | 17 | 289 | 11.3 | 22.5 | 0.00 | 0.28 | 0.00 | 76 | 1018.9 |
| 20260905064601 | 17 | 295 | 11.3 | 20.9 | 0.00 | 0.28 | 0.00 | 77 | 1018.7 |
| 20260905064102 | 17 | 268 | 14.5 | 27.4 | 0.00 | 0.28 | 0.00 | 77 | 1018.6 |
| 20260905063601 | 17 | 282 | 14.5 | 32.2 | 0.00 | 0.28 | 0.00 | 77 | 1018.6 |
| 20260905061601 | 17 | 275 | 11.3 | 24.1 | 0.00 | 0.28 | 0.00 | 78 | 1018.4 |
| 20260905061101 | 17 | 281 | 9.7 | 25.7 | 0.00 | 0.28 | 0.00 | 78 | 1018.3 |
| 20260905060101 | 17 | 277 | 9.7 | 22.5 | 0.00 | 0.28 | 0.00 | 79 | 1018.2 |
| 20260905055602 | 17 | 295 | 8.0 | 19.3 | 0.00 | 0.28 | 0.00 | 79 | 1018.1 |
| 20260905055102 | 17 | 290 | 8.0 | 16.1 | 0.00 | 0.28 | 0.00 | 79 | 1018.0 |
| 20260905053602 | 17 | 282 | 9.7 | 14.5 | 0.00 | 0.28 | 0.00 | 79 | 1017.9 |
| 20260905051601 | 17 | 266 | 8.0 | 12.9 | 0.00 | 0.28 | 0.00 | 79 | 1017.7 |
| 20260905051101 | 17 | 294 | 6.4 | 19.3 | 0.00 | 0.28 | 0.00 | 79 | 1017.6 |
| 20260905044600 | 17 | 250 | 8.0 | 19.3 | 0.00 | 0.28 | 0.00 | 78 | 1017.3 |
| 20260905043101 | 17 | 278 | 6.4 | 19.3 | 0.00 | 0.28 | 0.00 | 78 | 1017.3 |
| 20260905042601 | 17 | 281 | 8.0 | 16.1 | 0.00 | 0.28 | 0.00 | 78 | 1017.3 |
| 20260905042101 | 17 | 290 | 8.0 | 14.5 | 0.00 | 0.28 | 0.00 | 78 | 1017.3 |
| 20260905041601 | 17 | 270 | 8.0 | 16.1 | 0.00 | 0.28 | 0.00 | 78 | 1017.2 |
| 20260905041102 | 17 | 292 | 8.0 | 14.5 | 0.00 | 0.28 | 0.00 | 78 | 1017.2 |
| 20260905033601 | 17 | 281 | 4.8 | 12.9 | 0.00 | 0.28 | 0.00 | 77 | 1016.9 |
| 20260905033101 | 17 | 267 | 4.8 | 11.3 | 0.00 | 0.28 | 0.00 | 77 | 1016.9 |
| 20260905031601 | 17 | 285 | 8.0 | 14.5 | 0.00 | 0.28 | 0.00 | 77 | 1016.9 |
| 20260905031102 | 17 | 275 | 4.8 | 16.1 | 0.00 | 0.28 | 0.00 | 77 | 1016.9 |
| 20260905030100 | 17 | 267 | 8.0 | 14.5 | 0.00 | 0.28 | 0.00 | 77 | 1016.8 |
| 20260905025600 | 17 | 262 | 6.4 | 12.9 | 0.00 | 0.28 | 0.00 | 76 | 1016.8 |
| 20260905022600 | 17 | 261 | 6.4 | 14.5 | 0.00 | 0.28 | 0.00 | 74 | 1016.6 |
| 20260905022102 | 17 | 273 | 6.4 | 11.3 | 0.00 | 0.28 | 0.00 | 74 | 1016.5 |
| 20260905012101 | 17 | 317 | 4.8 | 20.9 | 0.00 | 0.28 | 0.00 | 73 | 1016.3 |
| 20260905011600 | 17 | 271 | 9.7 | 19.3 | 0.00 | 0.28 | 0.00 | 73 | 1016.3 |
| 20260905011101 | 17 | 286 | 9.7 | 16.1 | 0.00 | 0.28 | 0.00 | 74 | 1016.3 |
| 20260905003101 | 18 | 297 | 8.0 | 14.5 | 0.00 | 0.28 | 0.00 | 73 | 1016.3 |
| 20260905002601 | 18 | 303 | 6.4 | 14.5 | 0.00 | 0.28 | 0.00 | 72 | 1016.3 |
| 20260905001101 | 18 | 286 | 9.7 | 19.3 | 0.00 | 0.28 | 0.00 | 73 | 1016.2 |
| 20260904234100 | 18 | 287 | 9.7 | 22.5 | 0.00 | 0.28 | 0.00 | 71 | 1015.9 |
| 20260904233600 | 18 | 281 | 9.7 | 20.9 | 0.00 | 0.28 | 0.00 | 71 | 1015.9 |
| 20260904231101 | 18 | 290 | 8.0 | 22.5 | 0.00 | 0.28 | 0.00 | 71 | 1015.8 |
| 20260904225101 | 18 | 284 | 9.7 | 14.5 | 0.00 | 0.28 | 0.00 | 70 | 1015.8 |
| 20260904224601 | 18 | 293 | 8.0 | 19.3 | 0.00 | 0.28 | 0.00 | 69 | 1015.8 |
| 20260904224101 | 18 | 286 | 11.3 | 19.3 | 0.00 | 0.28 | 0.00 | 69 | 1015.8 |
| 20260904222601 | 18 | 294 | 9.7 | 19.3 | 0.00 | 0.28 | 0.00 | 68 | 1015.7 |
| 20260904220100 | 18 | 295 | 9.7 | 19.3 | 0.00 | 0.28 | 0.00 | 69 | 1015.6 |
| 20260904215600 | 18 | 290 | 6.4 | 16.1 | 0.00 | 0.28 | 0.28 | 68 | 1015.4 |
| 20260904215100 | 18 | 285 | 12.9 | 22.5 | 0.00 | 0.28 | 0.28 | 67 | 1015.4 |
| 20260904214600 | 18 | 292 | 8.0 | 22.5 | 0.00 | 0.28 | 0.28 | 67 | 1015.4 |
| 20260904214101 | 18 | 320 | 14.5 | 27.4 | 0.00 | 0.28 | 0.28 | 67 | 1015.4 |
| 20260904211600 | 18 | 274 | 8.0 | 19.3 | 0.00 | 0.28 | 0.28 | 68 | 1015.3 |
| 20260904211100 | 18 | 280 | 9.7 | 27.4 | 0.00 | 0.28 | 0.28 | 68 | 1015.3 |
| 20260904210100 | 18 | 300 | 11.3 | 19.3 | 0.00 | 0.28 | 0.28 | 68 | 1015.2 |
| 20260904205559 | 18 | 293 | 9.7 | 19.3 | 0.00 | 0.28 | 0.28 | 69 | 1015.0 |